Date,Time,Wetness (Wet Dry or Ice),Wind Speed (m/s),Temperature (C),Humidity (%),Pressure (mb),Radiation (W/m^2)
2018-08-16,05:20:00,DRY,7.50,11.97,50.7,779.00,1.3
2018-08-16,05:25:00,DRY,8.10,11.95,48.5,779.00,1.4
2018-08-16,05:30:00,DRY,7.00,11.93,49.0,779.00,1.2
2018-08-16,05:35:00,DRY,7.10,11.90,49.0,779.00,0.8
2018-08-16,05:40:00,DRY,7.67,11.90,49.0,779.00,1.5
2018-08-16,05:45:00,DRY,7.95,12.00,49.0,779.00,1.2
2018-08-16,05:50:00,DRY,7.90,11.93,48.7,779.00,1.5
2018-08-16,05:55:00,DRY,8.15,11.90,48.5,779.00,1.3
2018-08-16,06:00:00,DRY,6.80,11.90,48.7,779.00,1.3
2018-08-16,06:05:00,DRY,6.75,11.80,49.0,779.00,1.3
2018-08-16,06:10:00,DRY,6.93,11.87,48.7,779.00,1.2
2018-08-16,06:15:00,DRY,7.30,11.85,48.5,779.00,1.2
2018-08-16,06:20:00,DRY,7.23,11.80,49.0,779.00,1.7
2018-08-16,06:25:00,DRY,6.70,11.80,49.5,778.00,1.8
2018-08-16,06:30:00,DRY,6.50,11.80,49.7,779.00,2.7
2018-08-16,06:35:00,DRY,6.40,11.80,51.0,779.00,4.2
2018-08-16,06:40:00,DRY,7.37,11.77,51.3,779.00,7.7
2018-08-16,06:45:00,DRY,6.80,11.90,50.0,779.00,18.4
2018-08-16,06:50:00,DRY,7.73,12.13,47.7,779.00,31.6
2018-08-16,06:55:00,DRY,6.45,12.20,46.5,779.00,48.6
2018-08-16,07:00:00,DRY,7.60,12.47,42.3,779.00,70.6
2018-08-16,07:05:00,DRY,7.60,12.45,46.0,779.00,93.8
2018-08-16,07:10:00,DRY,7.03,12.50,45.0,779.00,113.9
2018-08-16,07:15:00,DRY,7.75,12.70,42.0,779.00,131.8
2018-08-16,07:20:00,DRY,7.67,12.83,40.0,779.00,150.9
2018-08-16,07:25:00,DRY,7.45,12.85,39.0,779.00,170.4
2018-08-16,07:30:00,DRY,6.43,13.17,36.7,779.00,189.9
2018-08-16,07:35:00,DRY,7.25,13.40,31.0,779.00,209.4
2018-08-16,07:40:00,DRY,7.47,13.57,30.3,779.00,229.5
2018-08-16,07:45:00,DRY,6.40,13.85,24.0,779.00,249.9
2018-08-16,07:50:00,DRY,6.23,14.13,21.3,779.00,270.5
2018-08-16,07:55:00,DRY,4.75,14.25,21.0,779.00,289.6
2018-08-16,08:00:00,DRY,6.60,14.37,19.7,779.00,310.9
2018-08-16,08:05:00,DRY,5.90,14.45,17.0,779.00,331.6
2018-08-16,08:10:00,DRY,5.67,14.40,21.0,779.00,352.4
2018-08-16,08:15:00,DRY,6.15,14.45,17.5,779.00,372.6
2018-08-16,08:20:00,DRY,6.27,14.53,20.3,779.00,393.2
2018-08-16,08:25:00,DRY,5.70,14.55,21.0,779.00,412.7
2018-08-16,08:30:00,DRY,6.97,14.73,21.3,779.00,433.2
2018-08-16,08:35:00,DRY,5.55,14.70,21.5,779.00,453.9
2018-08-16,08:40:00,DRY,5.43,14.97,18.7,779.00,473.7
2018-08-16,08:45:00,DRY,4.60,15.10,17.5,779.00,493.6
2018-08-16,08:50:00,DRY,5.80,15.30,14.7,779.00,513.3
2018-08-16,08:55:00,DRY,5.25,15.35,17.0,779.00,533.0
2018-08-16,09:00:00,DRY,5.43,15.80,13.0,779.00,553.4
2018-08-16,09:05:00,DRY,4.85,15.80,14.0,779.00,572.8
2018-08-16,09:10:00,DRY,4.70,15.97,14.0,779.00,590.7
2018-08-16,09:15:00,DRY,4.25,16.00,12.0,779.00,609.9
2018-08-16,09:20:00,DRY,4.60,16.37,14.0,779.00,627.5
2018-08-16,09:25:00,DRY,5.00,16.20,14.0,779.00,645.2
2018-08-16,09:30:00,DRY,4.87,16.30,13.0,779.00,663.3
2018-08-16,09:35:00,DRY,4.55,16.70,13.0,779.00,680.7
2018-08-16,09:40:00,DRY,5.20,16.87,11.7,779.00,698.0
2018-08-16,09:45:00,DRY,5.30,16.65,13.5,779.00,714.3
2018-08-16,09:50:00,DRY,6.17,16.87,12.3,779.00,730.4
2018-08-16,09:55:00,DRY,4.80,16.95,12.5,779.00,746.2
2018-08-16,10:00:00,DRY,5.77,17.03,12.3,779.00,762.2
2018-08-16,10:05:00,DRY,5.70,17.10,13.0,779.00,778.1
2018-08-16,10:10:00,DRY,5.57,17.20,14.0,779.00,792.6
2018-08-16,10:15:00,DRY,6.05,17.45,14.5,779.00,807.8
2018-08-16,10:20:00,DRY,5.10,17.33,13.7,779.00,821.7
2018-08-16,10:25:00,DRY,5.60,17.35,13.0,779.00,837.6
2018-08-16,10:30:00,DRY,5.50,17.30,15.3,779.00,849.7
2018-08-16,10:35:00,DRY,4.50,17.55,15.0,779.00,862.8
2018-08-16,10:40:00,DRY,5.27,17.63,15.0,779.00,874.6
2018-08-16,10:45:00,DRY,4.80,17.75,15.0,779.00,886.0
2018-08-16,10:50:00,DRY,3.73,17.90,17.3,779.00,898.6
2018-08-16,10:55:00,DRY,3.35,17.70,17.5,779.00,910.4
2018-08-16,11:00:00,DRY,4.17,17.97,14.7,779.00,921.7
2018-08-16,11:05:00,DRY,2.55,17.45,19.5,779.00,932.4
2018-08-16,11:10:00,DRY,4.07,17.67,15.7,779.00,943.3
2018-08-16,11:15:00,DRY,4.05,17.70,16.5,779.00,952.7
2018-08-16,11:20:00,DRY,3.73,17.93,21.3,779.00,962.1
2018-08-16,11:25:00,DRY,3.50,17.85,16.0,779.00,971.6
2018-08-16,11:30:00,DRY,4.30,17.43,16.3,779.00,981.3
2018-08-16,11:35:00,DRY,3.65,17.65,16.0,779.00,989.5
2018-08-16,11:40:00,DRY,3.83,18.27,18.7,779.00,996.6
2018-08-16,11:45:00,DRY,4.45,18.15,16.5,779.00,1004.5
2018-08-16,11:50:00,DRY,3.83,18.30,18.7,779.00,1011.4
2018-08-16,11:55:00,DRY,4.25,18.10,16.5,779.00,1017.5
2018-08-16,12:00:00,DRY,3.50,17.87,18.3,779.00,1025.3
2018-08-16,12:05:00,DRY,5.80,18.00,18.5,779.00,1029.7
2018-08-16,12:10:00,DRY,3.40,18.43,18.7,779.00,1035.4
2018-08-16,12:15:00,DRY,3.80,18.50,18.5,779.00,1040.4
2018-08-16,12:20:00,DRY,4.53,18.03,18.0,779.00,1045.3
2018-08-16,12:25:00,DRY,3.80,18.45,18.0,779.00,1048.5
2018-08-16,12:30:00,DRY,3.25,18.50,16.5,779.00,1053.5
2018-08-16,12:35:00,DRY,3.60,18.80,17.0,779.00,1055.3
2018-08-16,12:40:00,DRY,2.53,18.23,13.3,779.00,1059.3
2018-08-16,12:45:00,DRY,4.30,18.50,21.5,779.00,1058.2
2018-08-16,12:50:00,DRY,4.37,18.30,21.3,779.00,1061.8
2018-08-16,12:55:00,DRY,3.10,18.70,18.5,779.00,1064.5
2018-08-16,13:00:00,DRY,4.17,18.33,22.7,779.00,1062.9
2018-08-16,13:05:00,DRY,1.40,18.25,18.5,779.00,1065.5
2018-08-16,13:10:00,DRY,3.57,18.33,22.3,779.00,1066.1
2018-08-16,13:15:00,DRY,3.50,18.80,20.5,779.00,1065.2
2018-08-16,13:20:00,DRY,2.57,18.37,21.7,779.00,1066.3
2018-08-16,13:25:00,DRY,4.30,18.20,22.5,779.00,1065.2
2018-08-16,13:30:00,DRY,3.55,18.85,19.5,779.00,1063.9
2018-08-16,13:35:00,DRY,3.70,18.20,23.0,779.00,1063.3
2018-08-16,13:40:00,DRY,2.87,18.63,21.7,779.00,1061.0
2018-08-16,13:45:00,DRY,3.40,18.80,20.0,779.00,1058.5
2018-08-16,13:50:00,DRY,3.20,18.10,21.7,779.00,1054.9
2018-08-16,13:55:00,DRY,3.20,18.55,21.5,779.00,1050.9
2018-08-16,14:00:00,DRY,3.40,18.87,21.3,779.00,1048.5
2018-08-16,14:05:00,DRY,3.80,18.70,22.0,779.00,1044.1
2018-08-16,14:10:00,DRY,3.20,18.77,20.0,779.00,1041.1
2018-08-16,14:15:00,DRY,2.80,18.70,21.5,779.00,1034.5
2018-08-16,14:20:00,DRY,3.10,18.80,23.3,779.00,1030.8
2018-08-16,14:25:00,DRY,2.60,18.65,23.5,779.00,1023.8
2018-08-16,14:30:00,DRY,3.43,18.40,22.7,779.00,1016.4
2018-08-16,14:35:00,DRY,3.75,18.85,26.0,779.00,1010.8
2018-08-16,14:40:00,DRY,2.80,18.80,23.7,779.00,1001.3
2018-08-16,14:45:00,DRY,2.10,19.20,21.5,779.00,994.0
2018-08-16,14:50:00,DRY,3.17,19.23,22.3,779.00,986.3
2018-08-16,14:55:00,DRY,2.85,19.15,19.0,779.00,978.3
2018-08-16,15:00:00,DRY,1.73,18.63,21.0,779.00,972.4
2018-08-16,15:05:00,DRY,2.75,19.05,22.0,778.50,960.7
2018-08-16,15:10:00,DRY,3.57,19.23,22.7,778.33,949.2
2018-08-16,15:15:00,DRY,3.05,18.70,25.5,778.00,939.0
2018-08-16,15:20:00,DRY,2.87,18.77,22.3,778.00,928.8
2018-08-16,15:25:00,DRY,2.90,18.60,22.5,778.00,918.7
2018-08-16,15:30:00,DRY,3.47,18.57,23.3,778.00,905.4
2018-08-16,15:35:00,DRY,3.00,18.50,22.5,778.00,893.6
2018-08-16,15:40:00,DRY,2.50,18.53,22.7,778.00,880.9
2018-08-16,15:45:00,DRY,3.75,18.90,23.0,778.00,869.2
2018-08-16,15:50:00,DRY,3.40,18.53,23.7,778.00,854.2
2018-08-16,15:55:00,DRY,3.70,19.20,19.0,778.00,843.4
2018-08-16,16:00:00,DRY,2.83,18.40,18.7,778.00,827.5
2018-08-16,16:05:00,DRY,2.15,18.15,20.5,778.00,812.5
2018-08-16,16:10:00,DRY,2.40,18.33,22.7,778.00,796.7
2018-08-16,16:15:00,DRY,3.75,18.40,25.0,778.00,781.1
2018-08-16,16:20:00,DRY,3.80,18.10,22.7,778.00,766.7
2018-08-16,16:25:00,DRY,4.55,17.80,25.5,778.00,750.7
2018-08-16,16:30:00,DRY,2.93,17.90,22.3,778.00,735.1
2018-08-16,16:35:00,DRY,3.85,18.05,19.0,778.00,718.9
2018-08-16,16:40:00,DRY,2.80,17.87,20.7,778.00,701.4
2018-08-16,16:45:00,DRY,3.15,18.30,20.0,778.00,685.0
2018-08-16,16:50:00,DRY,2.43,17.60,22.7,778.00,667.1
2018-08-16,16:55:00,DRY,3.55,18.10,23.5,778.00,650.6
2018-08-16,17:00:00,DRY,3.83,17.57,23.3,778.00,633.1
2018-08-16,17:05:00,DRY,3.60,17.30,22.5,778.00,614.6
2018-08-16,17:10:00,DRY,3.47,17.27,22.3,778.00,597.0
2018-08-16,17:15:00,DRY,3.50,17.45,21.5,778.00,578.6
2018-08-16,17:20:00,DRY,3.90,17.57,22.7,778.00,558.5
2018-08-16,17:25:00,DRY,3.30,17.45,21.0,778.00,539.9
2018-08-16,17:30:00,DRY,3.50,17.07,21.0,778.00,521.6
2018-08-16,17:35:00,DRY,3.80,16.95,20.0,778.00,502.2
2018-08-16,17:40:00,DRY,4.10,17.17,20.0,778.00,483.5
2018-08-16,17:45:00,DRY,3.80,17.15,20.5,778.00,463.5
2018-08-16,17:50:00,DRY,3.07,17.23,19.7,778.00,444.1
2018-08-16,17:55:00,DRY,3.15,17.20,18.0,778.00,423.4
2018-08-16,18:00:00,DRY,2.97,17.13,19.3,778.00,404.1
2018-08-16,18:05:00,DRY,1.90,16.85,18.5,778.00,384.4
2018-08-16,18:10:00,DRY,2.50,16.80,17.3,778.00,362.9
2018-08-16,18:15:00,DRY,1.80,16.90,14.0,778.00,342.5
2018-08-16,18:20:00,DRY,1.20,17.35,15.5,778.00,318.6
2018-08-16,18:25:00,DRY,1.55,17.50,11.0,778.00,302.1
2018-08-16,18:30:00,DRY,1.80,17.97,9.7,778.00,282.9
2018-08-16,18:35:00,DRY,1.85,17.75,10.5,778.00,262.8
2018-08-16,18:40:00,DRY,1.73,17.47,10.7,778.00,242.5
2018-08-16,18:45:00,DRY,2.65,17.60,12.0,778.00,223.7
2018-08-16,18:50:00,DRY,2.27,17.60,11.0,778.00,174.3
2018-08-16,18:55:00,DRY,1.95,17.45,12.0,778.00,33.6
2018-08-16,19:00:00,DRY,2.03,16.93,11.3,778.00,29.1
2018-08-16,19:05:00,DRY,2.60,16.60,11.5,778.00,25.5
2018-08-16,19:10:00,DRY,2.13,16.57,12.3,778.00,23.5
2018-08-16,19:15:00,DRY,3.70,16.45,13.0,778.00,21.4
2018-08-16,19:20:00,DRY,2.60,16.27,14.0,778.00,20.8
2018-08-16,19:25:00,DRY,3.10,16.15,12.0,778.00,17.8
2018-08-16,19:30:00,DRY,2.60,16.03,13.0,778.00,16.9
2018-08-16,19:35:00,DRY,2.45,15.85,15.0,778.00,15.3
2018-08-16,19:40:00,DRY,2.63,15.70,14.7,778.00,13.2
2018-08-16,19:45:00,DRY,2.40,15.70,14.0,778.00,10.2
2018-08-16,19:50:00,DRY,1.77,15.77,10.3,778.00,8.6
2018-08-16,19:55:00,DRY,2.50,15.80,10.5,778.00,5.3
2018-08-16,20:00:00,DRY,2.63,16.07,10.0,778.00,2.8
2018-08-16,20:05:00,DRY,2.40,16.00,9.5,778.00,2.3
2018-08-16,20:10:00,DRY,2.73,15.67,10.0,778.00,1.3
2018-08-16,20:15:00,DRY,2.85,15.60,10.0,778.00,2.4
2018-08-16,20:20:00,DRY,3.20,15.40,10.7,778.00,1.6
2018-08-16,20:25:00,DRY,3.85,15.35,10.0,778.00,1.4
2018-08-16,20:30:00,DRY,3.87,15.43,10.3,778.00,0.8
2018-08-16,20:35:00,DRY,3.60,15.00,10.5,778.00,0.9
2018-08-16,20:40:00,DRY,3.17,14.90,11.0,778.00,1.0
2018-08-16,20:45:00,DRY,4.25,14.50,12.0,778.00,0.9
2018-08-16,20:50:00,DRY,3.70,14.60,12.3,778.00,1.0
2018-08-16,20:55:00,DRY,4.35,14.80,11.5,778.00,1.2
2018-08-16,21:00:00,DRY,3.55,14.50,12.5,778.00,1.2
2018-08-16,21:05:00,DRY,4.20,14.40,13.5,778.00,1.1
2018-08-16,21:10:00,DRY,3.93,14.60,12.3,778.00,1.0
2018-08-16,21:15:00,DRY,4.80,15.00,11.0,778.00,1.3
2018-08-16,21:20:00,DRY,3.80,14.80,12.3,778.00,1.4
2018-08-16,21:25:00,DRY,4.60,14.95,11.0,778.00,1.3
2018-08-16,21:30:00,DRY,4.30,14.87,12.0,778.00,1.2
2018-08-16,21:35:00,DRY,5.20,14.40,12.5,778.00,1.1
2018-08-16,21:40:00,DRY,4.97,14.43,11.0,778.00,1.4
2018-08-16,21:45:00,DRY,4.80,14.60,10.5,778.00,1.6
2018-08-16,21:50:00,DRY,4.07,14.43,11.7,778.00,1.3
2018-08-16,21:55:00,DRY,6.05,14.45,11.0,778.00,1.1
2018-08-16,22:00:00,DRY,5.73,14.43,11.0,778.00,1.2
2018-08-16,22:05:00,DRY,4.40,14.45,10.0,778.00,1.2
2018-08-16,22:10:00,DRY,4.93,14.30,10.0,778.00,0.9
2018-08-16,22:15:00,DRY,6.60,14.30,10.0,778.00,1.4
2018-08-16,22:20:00,DRY,4.80,14.23,12.3,778.00,1.4
2018-08-16,22:25:00,DRY,5.80,14.25,10.0,778.00,1.1
2018-08-16,22:30:00,DRY,6.10,14.10,12.3,778.00,1.4
2018-08-16,22:35:00,DRY,6.90,14.35,10.5,778.00,1.1
2018-08-16,22:40:00,DRY,6.93,14.43,12.0,778.00,1.4
2018-08-16,22:45:00,DRY,4.75,14.45,16.5,778.00,0.8
2018-08-16,22:50:00,DRY,6.27,14.40,21.0,778.00,1.1
2018-08-16,22:55:00,DRY,6.60,14.25,21.5,778.00,1.2
2018-08-16,23:00:00,DRY,5.97,14.13,24.0,778.00,0.9
2018-08-16,23:05:00,DRY,5.75,14.00,21.5,778.00,1.1
2018-08-16,23:10:00,DRY,6.20,13.83,18.3,778.00,1.1
2018-08-16,23:15:00,DRY,7.25,13.65,23.0,778.00,1.1
2018-08-16,23:20:00,DRY,5.70,13.70,21.7,778.00,1.4
2018-08-16,23:25:00,DRY,7.30,13.70,21.0,778.00,0.9
2018-08-16,23:30:00,DRY,7.10,13.50,22.7,778.00,1.1
2018-08-16,23:35:00,DRY,8.05,13.25,22.0,778.00,0.8
2018-08-16,23:40:00,DRY,7.30,13.37,23.7,778.00,1.2
2018-08-16,23:45:00,DRY,5.90,13.30,24.0,778.00,0.2
2018-08-16,23:50:00,DRY,7.25,13.25,25.0,778.00,1.2
2018-08-16,23:55:00,DRY,5.55,13.45,24.5,778.00,0.7
2018-08-17,00:00:00,DRY,7.00,13.67,25.7,778.00,1.2
2018-08-17,00:05:00,DRY,6.95,13.65,25.5,778.00,0.9
2018-08-17,00:10:00,DRY,6.83,13.57,23.3,778.00,1.2
2018-08-17,00:15:00,DRY,7.30,13.10,20.5,778.00,0.4
2018-08-17,00:20:00,DRY,7.55,13.10,22.0,778.00,0.6
2018-08-17,00:25:00,DRY,7.50,13.30,21.0,778.00,1.2
2018-08-17,00:30:00,DRY,7.10,13.40,22.0,777.33,0.8
2018-08-17,00:35:00,DRY,6.70,13.35,23.5,778.00,1.6
2018-08-17,00:40:00,DRY,7.30,13.00,25.0,777.67,0.9
2018-08-17,00:45:00,DRY,6.15,12.60,25.5,777.00,0.7
2018-08-17,00:50:00,DRY,7.10,12.33,28.7,777.00,1.3
2018-08-17,00:55:00,DRY,5.85,12.25,29.0,777.00,1.2
2018-08-17,01:00:00,DRY,6.30,12.17,30.3,777.00,1.1
2018-08-17,01:05:00,DRY,5.45,12.05,31.0,777.00,0.7
2018-08-17,01:10:00,DRY,5.90,12.03,31.0,777.00,1.1
2018-08-17,01:15:00,DRY,6.95,12.10,30.0,777.00,1.0
2018-08-17,01:20:00,DRY,6.40,12.10,31.3,777.00,1.0
2018-08-17,01:25:00,DRY,6.30,12.05,32.0,777.00,1.2
2018-08-17,01:30:00,DRY,5.53,12.00,32.0,777.00,1.6
2018-08-17,01:35:00,DRY,6.05,12.10,31.0,777.00,0.8
2018-08-17,01:40:00,DRY,5.93,12.23,28.3,777.00,1.0
2018-08-17,01:45:00,DRY,6.25,12.35,28.5,777.00,1.3
2018-08-17,01:50:00,DRY,6.37,12.23,29.3,777.00,1.0
2018-08-17,01:55:00,DRY,6.05,12.10,30.0,777.00,0.9
2018-08-17,02:00:00,DRY,5.90,12.00,30.0,777.00,0.8
2018-08-17,02:05:00,DRY,5.80,11.85,32.0,777.00,1.1
2018-08-17,02:10:00,DRY,6.77,11.97,31.0,777.00,1.3
2018-08-17,02:15:00,DRY,8.00,11.95,33.5,777.00,1.6
2018-08-17,02:20:00,DRY,6.83,11.87,34.3,776.67,1.1
2018-08-17,02:25:00,DRY,6.85,11.90,34.0,777.00,1.1
2018-08-17,02:30:00,DRY,6.57,11.90,34.3,777.00,1.2
2018-08-17,02:35:00,DRY,6.80,11.80,34.0,777.00,1.1
2018-08-17,02:40:00,DRY,7.77,11.90,33.3,776.33,1.1
2018-08-17,02:45:00,DRY,7.30,12.00,33.5,777.00,0.7
2018-08-17,02:50:00,DRY,7.43,12.03,34.0,776.67,1.2
2018-08-17,02:55:00,DRY,7.15,12.10,33.0,776.50,1.3
2018-08-17,03:00:00,DRY,6.47,12.00,33.0,776.33,1.2
2018-08-17,03:05:00,DRY,6.10,12.05,33.0,777.00,1.6
2018-08-17,03:10:00,DRY,7.03,12.00,33.0,777.00,1.5
2018-08-17,03:15:00,DRY,6.10,12.00,33.0,776.50,0.7
2018-08-17,03:20:00,DRY,6.33,12.07,33.3,776.33,1.9
2018-08-17,03:25:00,DRY,5.95,12.10,32.5,776.00,1.1
2018-08-17,03:30:00,DRY,5.87,12.07,32.3,776.00,1.1
2018-08-17,03:35:00,DRY,6.15,12.10,32.5,776.00,0.9
2018-08-17,03:40:00,DRY,6.23,12.10,32.3,776.00,1.1
2018-08-17,03:45:00,DRY,7.05,12.10,33.0,776.00,1.2
2018-08-17,03:50:00,DRY,6.60,12.13,33.0,776.00,1.1
2018-08-17,03:55:00,DRY,5.90,12.20,32.0,776.00,0.5
2018-08-17,04:00:00,DRY,5.23,12.13,32.0,776.00,0.8
2018-08-17,04:05:00,DRY,6.90,12.15,31.5,776.00,0.9
2018-08-17,04:10:00,DRY,5.53,12.10,31.7,776.00,1.2
2018-08-17,04:15:00,DRY,6.00,11.90,31.0,776.00,1.0
2018-08-17,04:20:00,DRY,5.43,11.90,30.3,776.00,1.1
2018-08-17,04:25:00,DRY,5.50,11.85,29.5,776.00,1.1
2018-08-17,04:30:00,DRY,6.37,11.90,30.0,776.00,2.0
2018-08-17,04:35:00,DRY,6.60,11.80,29.5,776.00,1.1
2018-08-17,04:40:00,DRY,5.33,11.53,30.0,776.00,1.1
2018-08-17,04:45:00,DRY,4.35,11.60,30.0,776.00,1.1
2018-08-17,04:50:00,DRY,6.07,11.63,30.0,776.00,1.2
2018-08-17,04:55:00,DRY,4.90,11.65,32.5,776.00,0.8
2018-08-17,05:00:00,DRY,4.90,11.70,31.0,776.00,1.0
2018-08-17,05:05:00,DRY,5.40,11.55,27.5,776.00,1.5
2018-08-17,05:10:00,DRY,4.37,11.47,28.0,776.00,1.9
2018-08-17,05:15:00,DRY,4.05,11.45,27.5,776.00,1.0
2018-08-17,05:20:00,DRY,3.77,11.70,29.7,776.00,1.1
2018-08-17,05:25:00,DRY,4.65,11.80,28.5,776.00,1.1
2018-08-17,05:30:00,DRY,4.03,11.60,27.0,776.00,1.1
2018-08-17,05:35:00,DRY,5.15,11.50,26.5,776.00,0.9
2018-08-17,05:40:00,DRY,4.57,11.57,26.0,776.00,1.3
2018-08-17,05:45:00,DRY,4.25,11.60,25.5,776.00,1.4
2018-08-17,05:50:00,DRY,4.40,11.70,24.0,776.00,1.3
2018-08-17,05:55:00,DRY,2.50,11.70,24.0,776.00,1.5
2018-08-17,06:00:00,DRY,5.40,11.87,22.7,776.33,1.1
2018-08-17,06:05:00,DRY,4.20,12.25,21.0,776.00,1.0
2018-08-17,06:10:00,DRY,4.70,12.13,22.3,776.00,1.0
2018-08-17,06:15:00,DRY,4.30,12.20,21.5,777.00,0.5
2018-08-17,06:20:00,DRY,4.50,12.33,20.3,776.67,1.5
2018-08-17,06:25:00,DRY,3.50,12.25,15.5,776.50,1.9
2018-08-17,06:30:00,DRY,3.80,12.30,17.0,776.67,2.4
2018-08-17,06:35:00,DRY,3.25,12.20,17.0,776.50,4.1
2018-08-17,06:40:00,DRY,3.60,12.17,16.0,776.67,7.7
2018-08-17,06:45:00,DRY,5.00,12.55,14.5,777.00,17.2
2018-08-17,06:50:00,DRY,4.07,12.70,14.7,776.33,29.7
2018-08-17,06:55:00,DRY,3.15,12.85,15.5,777.00,46.9
2018-08-17,07:00:00,DRY,4.23,12.77,14.3,776.33,68.1
2018-08-17,07:05:00,DRY,5.75,12.90,13.5,776.50,91.8
2018-08-17,07:10:00,DRY,4.97,12.90,14.0,776.33,112.0
2018-08-17,07:15:00,DRY,4.80,13.00,14.5,776.50,129.9
2018-08-17,07:20:00,DRY,4.50,13.23,14.7,776.67,148.5
2018-08-17,07:25:00,DRY,4.70,13.40,14.0,776.00,166.8
2018-08-17,07:30:00,DRY,5.27,13.50,14.3,776.00,186.8
2018-08-17,07:35:00,DRY,4.65,13.35,14.5,776.00,206.2
2018-08-17,07:40:00,DRY,4.73,13.33,16.0,776.00,226.2
2018-08-17,07:45:00,DRY,3.95,13.45,15.5,777.00,246.8
2018-08-17,07:50:00,DRY,5.10,13.60,14.0,776.67,267.7
2018-08-17,07:55:00,DRY,6.05,13.80,14.0,777.00,287.9
2018-08-17,08:00:00,DRY,5.80,13.90,13.3,777.00,308.5
2018-08-17,08:05:00,DRY,4.30,14.05,13.0,776.50,329.4
2018-08-17,08:10:00,DRY,5.13,13.90,12.7,777.00,349.8
2018-08-17,08:15:00,DRY,2.35,14.05,14.5,777.00,370.0
2018-08-17,08:20:00,DRY,4.87,14.07,13.7,777.00,391.0
2018-08-17,08:25:00,DRY,4.90,14.10,12.5,777.00,411.3
2018-08-17,08:30:00,DRY,5.40,14.13,13.7,776.67,431.1
2018-08-17,08:35:00,DRY,4.15,14.35,13.0,777.00,450.5
2018-08-17,08:40:00,DRY,5.37,14.40,13.0,777.00,470.2
2018-08-17,08:45:00,DRY,5.20,14.40,14.5,777.00,490.4
2018-08-17,08:50:00,DRY,4.80,14.43,14.0,777.00,508.8
2018-08-17,08:55:00,DRY,4.00,14.20,17.5,777.00,529.5
2018-08-17,09:00:00,DRY,3.43,14.33,16.0,777.00,547.9
2018-08-17,09:05:00,DRY,3.35,14.45,16.5,777.00,567.0
2018-08-17,09:10:00,DRY,4.03,14.40,16.0,777.00,585.6
2018-08-17,09:15:00,DRY,3.60,14.80,12.5,777.00,603.9
2018-08-17,09:20:00,DRY,3.23,15.00,12.7,777.00,622.1
2018-08-17,09:25:00,DRY,3.60,15.20,15.5,777.00,640.2
2018-08-17,09:30:00,DRY,3.13,15.20,14.0,777.00,658.0
2018-08-17,09:35:00,DRY,2.30,15.20,17.0,777.00,679.0
2018-08-17,09:40:00,DRY,3.00,15.30,18.3,777.00,692.1
2018-08-17,09:45:00,DRY,2.95,15.50,15.5,777.00,708.2
2018-08-17,09:50:00,DRY,3.97,15.47,14.3,777.00,724.2
2018-08-17,09:55:00,DRY,3.25,15.30,21.5,777.00,739.8
2018-08-17,10:00:00,DRY,4.23,15.43,19.3,777.00,755.7
2018-08-17,10:05:00,DRY,3.15,15.40,24.0,777.00,772.3
2018-08-17,10:10:00,DRY,4.50,15.10,26.7,777.00,787.2
2018-08-17,10:15:00,DRY,4.70,15.10,27.5,777.00,801.9
2018-08-17,10:20:00,DRY,3.83,14.73,29.3,777.00,815.9
2018-08-17,10:25:00,DRY,4.15,14.60,32.0,777.00,831.3
2018-08-17,10:30:00,DRY,4.20,14.83,26.3,777.00,844.7
2018-08-17,10:35:00,DRY,4.55,15.75,19.5,777.00,858.5
2018-08-17,10:40:00,DRY,3.67,15.23,29.0,777.00,869.4
2018-08-17,10:45:00,DRY,3.85,15.60,27.0,777.00,882.1
2018-08-17,10:50:00,DRY,3.23,16.10,23.3,777.00,895.5
2018-08-17,10:55:00,DRY,3.55,16.50,22.5,777.00,907.1
2018-08-17,11:00:00,DRY,2.73,16.13,24.0,777.00,917.6
2018-08-17,11:05:00,WET,2.95,16.65,22.5,777.00,928.9
2018-08-17,11:10:00,DRY,2.87,16.03,25.7,777.00,939.1
2018-08-17,11:15:00,DRY,1.70,16.10,28.0,777.00,949.9
2018-08-17,11:20:00,DRY,3.00,16.53,23.7,777.00,959.7
2018-08-17,11:25:00,DRY,2.45,16.85,28.5,777.00,969.1
2018-08-17,11:30:00,DRY,2.73,16.60,21.0,777.00,977.5
2018-08-17,11:35:00,DRY,2.25,16.85,17.5,777.00,986.0
2018-08-17,11:40:00,DRY,2.53,17.43,12.7,777.00,995.8
2018-08-17,11:45:00,DRY,2.55,17.95,14.0,777.00,1002.5
2018-08-17,11:50:00,DRY,2.90,17.67,15.0,777.00,1011.5
2018-08-17,11:55:00,DRY,3.05,17.45,12.0,777.00,1015.9
2018-08-17,12:00:00,DRY,4.03,17.37,13.7,777.00,1023.5
2018-08-17,12:05:00,DRY,4.60,16.70,11.5,777.00,1029.3
2018-08-17,12:10:00,DRY,2.53,16.70,14.7,777.00,1034.1
2018-08-17,12:15:00,DRY,3.75,17.55,18.0,777.00,1038.5
2018-08-17,12:20:00,DRY,2.60,17.53,15.0,777.00,1041.2
2018-08-17,12:25:00,DRY,1.30,17.65,18.5,777.00,1047.8
2018-08-17,12:30:00,DRY,2.90,17.60,26.0,777.00,1048.8
2018-08-17,12:35:00,DRY,3.00,17.70,20.5,777.00,1052.5
2018-08-17,12:40:00,DRY,3.70,17.87,19.0,777.00,1055.8
2018-08-17,12:45:00,DRY,1.95,17.50,18.5,777.00,1059.7
2018-08-17,12:50:00,DRY,3.17,17.07,19.0,777.00,1059.7
2018-08-17,12:55:00,DRY,3.60,17.70,16.0,777.00,1062.2
2018-08-17,13:00:00,DRY,3.17,17.27,23.3,776.33,1061.7
2018-08-17,13:05:00,DRY,4.05,17.60,18.5,776.00,1063.0
2018-08-17,13:10:00,DRY,2.83,17.73,18.3,777.00,1063.4
2018-08-17,13:15:00,DRY,2.05,17.55,22.0,776.50,1064.2
2018-08-17,13:20:00,DRY,3.73,17.40,21.0,776.33,1062.7
2018-08-17,13:25:00,DRY,2.40,17.35,23.0,776.00,1063.6
2018-08-17,13:30:00,DRY,2.65,17.70,21.0,776.00,1061.8
2018-08-17,13:35:00,DRY,3.60,17.50,33.0,776.00,1057.2
2018-08-17,13:40:00,DRY,2.67,17.40,25.0,776.00,1056.7
2018-08-17,13:45:00,DRY,2.85,17.75,24.5,776.00,1054.0
2018-08-17,13:50:00,DRY,2.20,17.47,30.0,776.00,1051.8
2018-08-17,13:55:00,DRY,3.20,17.65,31.5,776.00,1044.7
2018-08-17,14:00:00,DRY,2.50,17.67,33.3,776.00,1045.4
2018-08-17,14:05:00,DRY,3.15,17.25,29.0,776.00,1041.2
2018-08-17,14:10:00,DRY,2.07,17.20,27.3,776.00,1037.2
2018-08-17,14:15:00,DRY,1.70,17.20,22.0,776.00,1032.7
2018-08-17,14:20:00,DRY,3.30,17.43,24.0,776.00,1026.7
2018-08-17,14:25:00,DRY,4.65,17.80,24.5,776.00,1018.8
2018-08-17,14:30:00,DRY,2.10,17.13,26.0,776.00,1012.1
2018-08-17,14:35:00,DRY,3.05,17.60,26.5,776.00,1008.0
2018-08-17,14:40:00,DRY,3.43,17.40,31.0,776.00,998.2
2018-08-17,14:45:00,DRY,2.60,17.05,27.5,776.00,987.6
2018-08-17,14:50:00,DRY,2.47,17.10,29.0,776.00,981.7
2018-08-17,14:55:00,DRY,3.55,17.60,30.0,776.00,972.4
2018-08-17,15:00:00,DRY,1.97,17.53,28.0,776.00,963.7
2018-08-17,15:05:00,DRY,2.35,17.30,26.0,776.00,955.9
2018-08-17,15:10:00,DRY,2.20,17.30,30.0,776.00,944.1
2018-08-17,15:15:00,DRY,3.30,17.00,30.0,776.00,933.2
2018-08-17,15:20:00,DRY,2.43,17.20,31.7,776.00,921.6
2018-08-17,15:25:00,DRY,3.75,17.00,29.0,776.00,910.6
2018-08-17,15:30:00,DRY,2.93,17.30,29.7,776.00,898.7
2018-08-17,15:35:00,DRY,4.25,17.30,27.5,776.00,885.5
2018-08-17,15:40:00,DRY,3.23,17.23,30.3,776.00,873.9
2018-08-17,15:45:00,DRY,4.10,16.90,26.5,775.00,860.5
2018-08-17,15:50:00,DRY,2.97,17.27,28.0,776.00,845.5
2018-08-17,15:55:00,DRY,4.10,17.05,28.0,775.00,833.3
2018-08-17,16:00:00,DRY,3.67,17.03,27.0,775.67,818.2
2018-08-17,16:05:00,DRY,4.30,16.80,26.0,776.00,804.1
2018-08-17,16:10:00,DRY,4.30,16.87,25.3,775.33,790.5
2018-08-17,16:15:00,DRY,5.10,16.70,24.5,775.50,776.0
2018-08-17,16:20:00,DRY,3.20,16.70,25.0,775.33,761.0
2018-08-17,16:25:00,DRY,3.95,16.75,27.0,775.00,744.8
2018-08-17,16:30:00,DRY,4.23,16.57,25.0,775.00,728.0
2018-08-17,16:35:00,DRY,3.15,16.40,27.0,775.00,711.5
2018-08-17,16:40:00,DRY,4.23,16.23,26.7,775.00,695.6
2018-08-17,16:45:00,DRY,5.00,16.15,28.0,775.00,679.4
2018-08-17,16:50:00,DRY,3.07,16.10,27.0,775.00,661.4
2018-08-17,16:55:00,DRY,3.70,16.05,28.0,775.00,643.6
2018-08-17,17:00:00,DRY,2.90,15.97,27.7,775.00,626.8
2018-08-17,17:05:00,DRY,1.80,15.95,27.5,775.00,607.9
2018-08-17,17:10:00,DRY,3.63,15.90,27.7,775.00,591.4
2018-08-17,17:15:00,DRY,2.85,15.90,28.0,775.00,572.4
2018-08-17,17:20:00,DRY,4.13,15.83,27.0,775.00,554.1
2018-08-17,17:25:00,DRY,4.25,15.65,27.5,775.00,534.6
2018-08-17,17:30:00,DRY,4.53,15.50,27.3,775.00,516.1
2018-08-17,17:35:00,DRY,3.45,15.00,27.0,775.00,495.8
2018-08-17,17:40:00,DRY,4.27,14.77,26.7,775.00,477.7
2018-08-17,17:45:00,DRY,5.25,14.80,27.0,775.00,457.9
2018-08-17,17:50:00,DRY,4.37,14.53,26.7,775.00,437.3
2018-08-17,17:55:00,DRY,4.30,14.50,28.0,775.00,418.5
2018-08-17,18:00:00,DRY,3.73,14.50,28.0,775.00,398.5
2018-08-17,18:05:00,DRY,4.80,14.45,28.0,775.00,377.8
2018-08-17,18:10:00,DRY,5.87,14.50,26.7,775.00,357.5
2018-08-17,18:15:00,DRY,4.80,14.30,27.0,775.00,337.5
2018-08-17,18:20:00,DRY,4.00,14.20,26.7,775.00,316.6
2018-08-17,18:25:00,DRY,5.65,13.90,28.0,775.00,297.1
2018-08-17,18:30:00,DRY,7.27,13.87,27.3,775.00,276.2
2018-08-17,18:35:00,DRY,6.95,13.60,28.0,775.00,256.9
2018-08-17,18:40:00,DRY,4.73,13.53,28.0,775.00,236.7
2018-08-17,18:45:00,DRY,5.95,13.50,28.0,775.00,217.6
2018-08-17,18:50:00,DRY,5.13,13.37,29.0,775.00,130.6
2018-08-17,18:55:00,DRY,7.00,13.25,28.5,775.00,32.6
2018-08-17,19:00:00,DRY,5.67,13.17,29.3,775.00,27.5
2018-08-17,19:05:00,DRY,7.05,13.10,29.5,775.00,24.6
2018-08-17,19:10:00,DRY,6.07,13.10,29.3,775.00,23.1